NDF4TP ENCN-EDDH

Flight info

Callsign NDF4TP
Flight time N/A
Altitude 37000
Route AMSEV7B AMSEV DCT ALASA M852 EKERN T905 BOGMU BOGMU3P
Aircraft B38M/M-SDE1FGHILORVWXY/HB1

Departure

Time 2026-05-04 19:49
Airport Kristiansand Airport (ENCN)

Arrival

Time N/A
Airport Hamburg Helmut Schmidt Airport (EDDH)
Time Latitude Longitude Altitude Speed Heading
2026-05-04 19:19 58.20310 8.07636 61 ft 0 kts 302°
2026-05-04 19:41 58.20308 8.07643 61 ft 3 kts 301°
2026-05-04 19:42 58.20293 8.07681 61 ft 4 kts 311°
2026-05-04 19:42 58.20274 8.07718 52 ft 4 kts 317°
2026-05-04 19:42 58.20272 8.07721 61 ft 0 kts 317°
2026-05-04 19:45 58.20273 8.07720 61 ft 1 kts 319°
2026-05-04 19:45 58.20289 8.07722 61 ft 6 kts 26°
2026-05-04 19:46 58.20343 8.07841 56 ft 17 kts 52°
2026-05-04 19:46 58.20423 8.08036 55 ft 20 kts 52°
2026-05-04 19:46 58.20513 8.08255 57 ft 20 kts 53°
2026-05-04 19:46 58.20550 8.08443 57 ft 15 kts 83°
2026-05-04 19:47 58.20567 8.08660 54 ft 19 kts 75°
2026-05-04 19:47 58.20667 8.08863 58 ft 25 kts 34°
2026-05-04 19:47 58.20826 8.09074 58 ft 30 kts 34°
2026-05-04 19:47 58.20991 8.09292 61 ft 25 kts 35°
2026-05-04 19:48 58.21095 8.09436 57 ft 12 kts 47°
2026-05-04 19:48 58.21141 8.09528 57 ft 9 kts 355°
2026-05-04 19:48 58.21150 8.09504 60 ft 0 kts 251°
2026-05-04 19:48 58.21146 8.09500 60 ft 0 kts 216°
2026-05-04 19:49 58.21078 8.09408 56 ft 48 kts 215°
2026-05-04 19:49 58.20560 8.08718 56 ft 132 kts 214°
2026-05-04 19:49 58.19682 8.07587 471 ft 169 kts 216°
2026-05-04 19:49 58.18660 8.06307 1486 ft 182 kts 217°
2026-05-04 19:50 58.17429 8.05415 2497 ft 201 kts 205°
2026-05-04 19:50 58.16023 8.04548 3242 ft 223 kts 205°
2026-05-04 19:50 58.14498 8.03601 4174 ft 234 kts 206°
2026-05-04 19:50 58.12923 8.02620 4767 ft 240 kts 205°
2026-05-04 19:51 58.11338 8.01650 4928 ft 239 kts 205°
2026-05-04 19:51 58.09740 8.00696 5512 ft 245 kts 201°
2026-05-04 19:51 58.07944 8.00620 6313 ft 277 kts 173°
2026-05-04 19:51 58.06191 8.02321 7367 ft 292 kts 146°
2026-05-04 19:52 58.04603 8.04803 8369 ft 299 kts 147°
2026-05-04 19:52 58.02962 8.07264 9433 ft 303 kts 148°
2026-05-04 19:52 58.01292 8.09748 10337 ft 311 kts 148°
2026-05-04 19:52 57.99534 8.12349 10898 ft 331 kts 148°
2026-05-04 19:53 57.97673 8.15095 11504 ft 346 kts 148°
2026-05-04 19:53 57.95745 8.17938 12173 ft 359 kts 148°
2026-05-04 19:53 57.93749 8.20873 12888 ft 369 kts 147°
2026-05-04 19:53 57.91715 8.23862 13734 ft 373 kts 147°
2026-05-04 19:54 57.89658 8.26876 14469 ft 378 kts 147°
2026-05-04 19:54 57.87597 8.29893 15174 ft 383 kts 147°
2026-05-04 19:54 57.85452 8.33029 15904 ft 389 kts 147°
2026-05-04 19:54 57.83328 8.36128 16605 ft 393 kts 148°
2026-05-04 19:55 57.81151 8.39301 17294 ft 398 kts 148°
2026-05-04 19:55 57.78950 8.42503 17967 ft 403 kts 148°
2026-05-04 19:55 57.76723 8.45738 18572 ft 408 kts 148°
2026-05-04 19:55 57.74650 8.49412 19198 ft 419 kts 132°
2026-05-04 19:56 57.73165 8.54148 19838 ft 427 kts 115°
2026-05-04 19:56 57.72020 8.59314 20406 ft 432 kts 115°
2026-05-04 19:56 57.70881 8.64540 20990 ft 435 kts 114°
2026-05-04 19:56 57.69744 8.69803 21562 ft 438 kts 116°
2026-05-04 19:57 57.68241 8.74720 22096 ft 436 kts 133°
2026-05-04 19:57 57.66088 8.78604 22692 ft 427 kts 150°
2026-05-04 19:57 57.63501 8.81197 23168 ft 418 kts 167°
2026-05-04 19:57 57.60728 8.82797 23610 ft 418 kts 171°
2026-05-04 19:58 57.57930 8.84209 24109 ft 418 kts 172°
2026-05-04 19:58 57.55093 8.85539 24583 ft 422 kts 173°
2026-05-04 19:58 57.52243 8.86826 25075 ft 423 kts 173°
2026-05-04 19:58 57.49368 8.88093 25514 ft 426 kts 173°
2026-05-04 19:59 57.46473 8.89352 25970 ft 428 kts 173°
2026-05-04 19:59 57.43567 8.90609 26421 ft 430 kts 174°
2026-05-04 19:59 57.40645 8.91869 26851 ft 432 kts 174°
2026-05-04 19:59 57.37737 8.93119 27271 ft 435 kts 174°
2026-05-04 20:00 57.34793 8.94384 27694 ft 437 kts 174°
2026-05-04 20:00 57.31819 8.95657 28060 ft 439 kts 173°
2026-05-04 20:00 57.28827 8.96939 28461 ft 442 kts 173°
2026-05-04 20:00 57.25817 8.98225 28820 ft 445 kts 173°
2026-05-04 20:01 57.22794 8.99514 29216 ft 447 kts 173°
2026-05-04 20:01 57.19736 9.00816 29602 ft 449 kts 173°
2026-05-04 20:01 57.16691 9.02109 29935 ft 452 kts 173°
2026-05-04 20:01 57.13619 9.03414 30277 ft 454 kts 173°
2026-05-04 20:02 57.10553 9.04713 30575 ft 456 kts 173°
2026-05-04 20:02 57.07488 9.06009 30869 ft 458 kts 173°
2026-05-04 20:02 57.04373 9.07323 31130 ft 461 kts 172°
2026-05-04 20:02 57.01242 9.08644 31414 ft 463 kts 172°
2026-05-04 20:03 56.98091 9.09969 31694 ft 465 kts 172°
2026-05-04 20:03 56.94933 9.11295 32046 ft 465 kts 172°
2026-05-04 20:03 56.91778 9.12618 32438 ft 465 kts 172°
2026-05-04 20:03 56.88624 9.13938 32823 ft 465 kts 172°
2026-05-04 20:04 56.85475 9.15254 33211 ft 464 kts 172°
2026-05-04 20:04 56.82325 9.16568 33607 ft 464 kts 172°
2026-05-04 20:04 56.79181 9.17877 33995 ft 464 kts 172°
2026-05-04 20:04 56.76034 9.19185 34284 ft 463 kts 172°
2026-05-04 20:05 56.72889 9.20490 34607 ft 463 kts 172°
2026-05-04 20:05 56.69748 9.21791 34898 ft 463 kts 172°
2026-05-04 20:05 56.66596 9.23095 34990 ft 464 kts 172°